{"data":{"norad_id":55244,"epoch":"2026-05-25T04:06:32.582880Z","epoch_age_seconds":60179,"freshness":"FRESH","line1":"1 55244U 23006C   26145.17121045  .00005018  00000+0  26054-3 0  9993","line2":"2 55244  43.1966 250.1739 0018098 230.3078 129.6177 15.16955832186381","mean_motion":15.16955832,"eccentricity":0.0018098,"inclination_deg":43.1966,"raan_deg":250.1739,"arg_perigee_deg":230.3078,"mean_anomaly_deg":129.6177,"bstar":0.00026054,"rev_number":18638,"period_min":94.926956317605,"perigee_km":502.57191724865,"apogee_km":527.52248678628,"semimajor_km":6893.1842020175,"source":"CELESTRAK","updated_at":"2026-05-25T13:37:58.877659Z"}}